Please support this Forum and Neven's Blog

Show Posts

This section allows you to view all posts made by this member. Note that you can only see posts made in areas you currently have access to.


Attachments - Hyperion

Pages: [1] 2 3
Filename Downloads Message Posted
GreentoPole25jul.png 3 Re: What the Buoys are telling Today at 02:10:49 AM
2017B25jul.png 4 Re: What the Buoys are telling Today at 02:10:49 AM
NaresEntrance24jul.png 24 Re: The 2017 melting season July 24, 2017, 10:30:07 PM
Nares24jul.png 17 Re: The 2017 melting season July 24, 2017, 10:30:07 PM
nthCentralElsmere23jul.png 12 Re: The 2017 melting season July 24, 2017, 10:30:07 PM
NthofCAA23jul.png 12 Re: The 2017 melting season July 24, 2017, 10:30:07 PM
hyPP.jpg 16 Re: What the Buoys are telling July 24, 2017, 07:30:52 AM
Static_Map.png 495 Re: What the Buoys are telling July 24, 2017, 05:37:36 AM
image stack till 07.jpg 41 Re: The 2017 melting season July 24, 2017, 03:49:48 AM
AteamIceDrift20-25July.png 983 Re: The 2017 melting season July 24, 2017, 02:44:04 AM
itp95-97 temp salinity.jpg 17 Re: The 2017 melting season July 24, 2017, 02:44:04 AM
24thSSTAcurrents.png 12 Re: The 2017 melting season July 23, 2017, 11:54:45 PM
24thSSTcurrentsZ.png 12 Re: The 2017 melting season July 23, 2017, 11:54:45 PM
24ChukSSTA.png 14 Re: The 2017 melting season July 23, 2017, 11:54:45 PM
pacCannon.gif 55 Re: The 2017 melting season July 23, 2017, 02:11:08 PM
chukBeau.gif 41 Re: The 2017 melting season July 23, 2017, 02:11:08 PM
itp95-97.jpg 19 Re: The 2017 melting season July 23, 2017, 02:11:08 PM
arcticbathy.png 35 Re: The 2017 melting season July 23, 2017, 02:11:08 PM
SuperBarClawz.png 54 Re: The 2017 melting season July 22, 2017, 02:15:58 AM
2nth84Svalbard.png 20 Re: The 2017 melting season July 21, 2017, 10:02:28 PM
2nth87Svalbard.png 18 Re: The 2017 melting season July 21, 2017, 10:02:28 PM
FramWide.png 15 Re: The 2017 melting season July 21, 2017, 10:02:28 PM
CAAwide.png 20 Re: The 2017 melting season July 21, 2017, 10:02:28 PM
2nth80 sib.png 17 Re: The 2017 melting season July 21, 2017, 09:54:09 PM
2nth79newsibIs.png 17 Re: The 2017 melting season July 21, 2017, 09:54:09 PM
2nth80newsibIs.png 17 Re: The 2017 melting season July 21, 2017, 09:54:09 PM
2nth83sevZem.png 17 Re: The 2017 melting season July 21, 2017, 09:54:09 PM
a80-85nth.jpg 2263 Re: Home brew AMSR2 extent & area calculation July 21, 2017, 01:21:46 PM
b80-85nth.jpg 2257 Re: Home brew AMSR2 extent & area calculation July 21, 2017, 01:21:46 PM
july192016.jpg 24 Re: The 2017 melting season July 21, 2017, 03:01:27 AM
aug192016.jpg 18 Re: The 2017 melting season July 21, 2017, 03:01:27 AM
july192017.jpg 36 Re: The 2017 melting season July 21, 2017, 03:01:27 AM
july192017b.jpg 36 Re: The 2017 melting season July 21, 2017, 03:01:27 AM
pacMSLP7-21-850hpa.png 21 Re: The 2017 melting season July 20, 2017, 08:04:41 PM
pacTPW7-21-250hpa.png 15 Re: The 2017 melting season July 20, 2017, 08:04:41 PM
bottom.jpg 1423 Re: What the Buoys are telling July 20, 2017, 12:20:37 PM
sstCurrents2015-2017.gif 145 Re: The 2017 melting season July 20, 2017, 05:14:24 AM
850temps15-20.gif 4395 Re: Home brew AMSR2 extent & area calculation July 16, 2017, 03:16:37 PM
TPW15-20.gif 4393 Re: Home brew AMSR2 extent & area calculation July 16, 2017, 03:16:37 PM
overall.png 125 Re: The 2017 melting season July 16, 2017, 05:13:36 AM
EuroFront15jul.gif 86 Re: The 2017 melting season July 16, 2017, 05:13:36 AM
centralrussian.png 70 Re: The 2017 melting season July 16, 2017, 05:13:36 AM
250TnW2016-07-15.png 34 Re: The 2017 melting season July 15, 2017, 03:52:08 AM
250TnW2017-07-15.png 32 Re: The 2017 melting season July 15, 2017, 03:52:08 AM
250hpaChaos.png 52 Re: The 2017 melting season July 14, 2017, 09:05:32 AM
10hpa-TPW.png 57 Re: The 2017 melting season July 14, 2017, 09:05:32 AM
TotPrecWater14-18Jul.gif 55 Re: The 2017 melting season July 14, 2017, 09:05:32 AM
wideTotPrecWater14-18Jul.gif 60 Re: The 2017 melting season July 14, 2017, 09:05:32 AM
1000temps14-18Jul.gif 154 Re: The 2017 melting season July 14, 2017, 04:47:39 AM
850temps14-18Jul.gif 188 Re: The 2017 melting season July 14, 2017, 03:34:43 AM
Pages: [1] 2 3